CUTE-1 (CO-55) 1 27844U 03031E 26037.02060226 .00000479 00000+0 22668-3 0 9994 2 27844 98.6774 47.2153 0009183 200.5124 159.5687 14.24238896173004 CUBESAT XI-IV (CO-57) 1 27848U 03031J 26036.94383249 .00000403 00000+0 19611-3 0 9992 2 27848 98.6803 46.9576 0008751 219.9114 140.1422 14.23538042172703 CUBESAT XI-V 1 28895U 05043F 26036.97653185 .00002891 00000+0 46647-3 0 9994 2 28895 98.2781 190.0161 0013158 260.9206 99.0512 14.72174299 82440 CUTE-1.7+APD II (CO-65) 1 32785U 08021C 26037.13142692 .00009398 00000+0 61549-3 0 9998 2 32785 97.8167 16.0621 0011184 110.0145 250.2288 15.07904356965432 CANX-2 1 32790U 08021H 26036.91820854 .00007286 00000+0 52470-3 0 9999 2 32790 97.8522 14.3567 0012484 120.9981 239.2472 15.04437965965060 SEEDS II (CO-66) 1 32791U 08021J 26036.97079956 .00028414 00000+0 10503-2 0 9991 2 32791 97.7493 29.1271 0005441 69.7436 290.4387 15.27668637967224 SWISSCUBE 1 35932U 09051B 26036.72595811 .00002031 00000+0 41338-3 0 9999 2 35932 98.4130 302.2977 0005543 262.7892 97.2678 14.62166884869943 BEESAT-1 1 35933U 09051C 26036.66898590 .00001734 00000+0 35980-3 0 9998 2 35933 98.4058 302.1439 0004074 281.0634 79.0108 14.61454747869977 ITUPSAT1 1 35935U 09051E 26037.16228929 .00001405 00000+0 30158-3 0 9996 2 35935 98.4147 301.9709 0006341 290.0402 70.0115 14.60196273869613 TISAT 1 1 36799U 10035E 26036.77482882 .00036906 00000+0 14291-2 0 9998 2 36799 98.0623 332.3284 0003310 37.2025 322.9440 15.26078445847628 AEROCUBE 4.5A 1 38767U 12048K 26036.65136036 .00107503 00000+0 14121-2 0 9999 2 38767 64.6391 131.1026 0049784 221.1518 138.5867 15.56444150351998 STRAND-1 1 39090U 13009E 26036.95422955 .00000515 00000+0 18791-3 0 9991 2 39090 98.3855 220.4399 0007581 262.4770 97.5556 14.37065643678219 BRITE-AUSTRIA 1 39091U 13009F 26036.98138898 .00000332 00000+0 12764-3 0 9996 2 39091 98.3921 219.6871 0009066 272.2473 87.7675 14.36476577678212 NEE-01 PEGASO 1 39151U 13018B 26036.93158561 .00006067 00000+0 59103-3 0 9996 2 39151 98.1001 176.9813 0011901 233.0944 126.9184 14.92830423691117 POPACS 2 1 39269U 13055E 26037.15123168 .00020822 00000+0 37333-3 0 9993 2 39269 80.9942 293.7109 0434500 253.6008 101.7035 14.86393455643710 POPACS 3 1 39270U 13055F 26036.94528200 .00011048 00000+0 26583-3 0 9992 2 39270 81.0040 11.1866 0564336 108.9086 257.4143 14.53090569619473 ZACUBE-1 (TSHEPISOSAT) 1 39417U 13066B 26036.31273955 .00010711 00000+0 85247-3 0 9990 2 39417 97.8173 357.9848 0041005 331.8432 28.0573 14.99911337660957 WNISAT-1 1 39423U 13066H 26036.98895785 .00001428 00000+0 26985-3 0 9990 2 39423 97.6983 195.6221 0162545 285.3044 73.0242 14.57764759647617 TRITON-1 1 39427U 13066M 26037.18861309 .00005980 00000+0 72691-3 0 9994 2 39427 97.8315 310.0057 0089899 301.8707 57.3780 14.80991467654694 GOMX-1 1 39430U 13066Q 26037.15207911 .00003836 00000+0 58233-3 0 9992 2 39430 97.6574 245.8219 0130474 137.8366 223.2966 14.68960707650675 CUBEBUG-2 (LO-74) 1 39440U 13066AA 26036.85759972 .00007926 00000+0 74885-3 0 9993 2 39440 97.8774 345.5020 0060752 102.2852 258.5178 14.92571364657391 NEE-02 KRYSAOR 1 39441U 13066AB 26036.79859721 .00003819 00000+0 42581-3 0 9995 2 39441 97.8789 337.0994 0067915 139.4111 221.2196 14.85967793656687 FUNCUBE-1 (AO-73) 1 39444U 13066AE 26036.84840315 .00016831 00000+0 11021-2 0 9995 2 39444 97.8146 5.8746 0036001 291.7835 67.9563 15.07271677659869 UWE-3 1 39446U 13066AG 26036.82439138 .00010655 00000+0 93494-3 0 9995 2 39446 97.8559 352.2552 0051670 39.3948 321.1012 14.95763546657930 BRITE-CA1 (TORONTO) 1 40020U 14033L 26036.89336286 .00001359 00000+0 21260-3 0 9990 2 40020 97.9525 168.4294 0078499 338.1501 21.6365 14.72377561622890 DUCHIFAT-1 1 40021U 14033M 26037.08749906 .00065795 00000+0 13333-2 0 9995 2 40021 98.0698 79.8807 0006157 175.2197 184.9110 15.46155365635389 NANOSATC-BR1 1 40024U 14033Q 26037.01438985 .00025618 00000+0 97093-3 0 9999 2 40024 98.0863 58.1388 0002037 290.3726 69.7292 15.26879018633936 QB50P1 1 40025U 14033R 26036.89899582 .00015867 00000+0 83293-3 0 9991 2 40025 98.0996 39.0574 0007892 325.8248 34.2474 15.15798611633123 QB50P2 1 40032U 14033Y 26036.92557995 .00014118 00000+0 80185-3 0 9997 2 40032 98.0698 25.8823 0005764 261.0601 98.9976 15.13031290632809 PERSEUS-M2 1 40037U 14033AD 26037.17109525 .00003712 00000+0 34452-3 0 9996 2 40037 97.9827 345.2126 0012519 20.0257 340.1452 14.94998551631201 PERSEUS-M1 1 40039U 14033AF 26037.08613925 .00003298 00000+0 30610-3 0 9993 2 40039 97.9520 339.2240 0012208 19.0875 341.0800 14.95078789631044 POLYITAN-1 1 40042U 14033AJ 26036.99595838 .00028654 00000+0 10430-2 0 9998 2 40042 98.1062 51.2764 0006001 238.5632 121.5020 15.28174641633528 TIGRISAT 1 40043U 14033AK 26036.98023161 .00004837 00000+0 56676-3 0 9993 2 40043 97.7616 190.1983 0050589 144.0775 216.3859 14.84535583626155 AEROCUBE 6A 1 40045U 14033AM 26036.97196368 .00011203 00000+0 97763-3 0 9991 2 40045 97.7084 205.5668 0040455 94.6558 265.9286 14.96360554626989 AEROCUBE 6B 1 40046U 14033AN 26036.96410489 .00010731 00000+0 90516-3 0 9998 2 40046 97.7077 205.0925 0039255 86.2882 274.2827 14.97724611627104 CANX-4 1 40055U 14034C 26037.09208515 .00001614 00000+0 21555-3 0 9996 2 40055 98.3320 267.4585 0014096 73.7999 286.4762 14.80976323625126 CANX-5 1 40056U 14034D 26037.09201319 .00001626 00000+0 21700-3 0 9997 2 40056 98.3323 267.4941 0014104 73.9265 286.3498 14.80992873615935 UKUBE-1 1 40074U 14037F 26036.90563741 .00015617 00000+0 93613-3 0 9996 2 40074 98.4206 26.6631 0000751 132.1973 227.9318 15.11078730628718 BRITE-PL2 (HEWELIUSZ) 1 40119U 14049B 26036.86154347 .00004246 00000+0 40301-3 0 9994 2 40119 97.8983 148.0146 0014137 179.6888 180.4343 14.94007685621835 AEROCUBE 5C 1 40965U 15058B 26037.18140553 .00004518 00000+0 40421-3 0 9999 2 40965 64.7689 309.8883 0132643 114.8753 246.6216 14.90596688346122 AEROCUBE 7 1 40966U 15058C 26037.13715942 .00006304 00000+0 51427-3 0 9998 2 40966 64.7631 294.9393 0122790 114.2145 247.1859 14.94540405346366 FOX-1A (AO-85) 1 40967U 15058D 26037.18558848 .00004765 00000+0 43338-3 0 9995 2 40967 64.7772 325.8322 0130398 108.4131 253.1210 14.90101979 94040 SINOD-D 1 1 40968U 15058E 26037.12974273 .00006979 00000+0 57070-3 0 9991 2 40968 64.7767 308.9666 0118864 106.0702 255.3539 14.94690624 97067 SNAP-3 ALICE 1 40970U 15058G 26036.78827163 .00081357 00000+0 19760-2 0 9996 2 40970 64.7578 190.5512 0038266 90.2363 270.3158 15.39772087 96538 LMRST-SAT 1 40971U 15058H 26037.17533866 .00004501 00000+0 41195-3 0 9999 2 40971 64.7778 321.9602 0132685 110.3181 251.2247 14.89733948 94030 SNAP-3 EDDIE 1 40972U 15058J 26037.13044642 .00076870 00000+0 18027-2 0 9990 2 40972 64.7500 180.9897 0040156 93.8298 266.7431 15.40769114 98715 PROPCUBE 3 1 40973U 15058K 26037.19023632 .00005671 00000+0 47788-3 0 9991 2 40973 64.7698 301.5070 0125490 112.2251 249.2230 14.93208459 95232 BISONSAT 1 40974U 15058L 26036.97043448 .00019588 00000+0 10308-2 0 9993 2 40974 64.7585 236.8508 0081586 105.9238 255.0894 15.12821609 95742 SNAP-3 JIMI 1 40975U 15058M 26037.04774806 .00009426 00000+0 66875-3 0 9993 2 40975 64.7644 274.1903 0107743 109.7869 251.4904 15.00619155 94535 PROPCUBE 1 (FLORA) 1 40976U 15058N 26036.94394085 .00004230 00000+0 40260-3 0 9997 2 40976 64.7772 341.7445 0131810 112.6094 248.9022 14.88405467 96724 SINOD-D 3 1 40977U 15058P 26036.99566457 .00006203 00000+0 53225-3 0 9994 2 40977 64.7746 325.1447 0120343 110.8687 250.5361 14.92875466 95168 HORYU-4 1 41340U 16012D 26037.05465241 .00093152 00000+0 11976-2 0 9992 2 41340 30.9921 288.3565 0002050 60.7004 299.3852 15.57677481550165 RAVAN 1 41849U 16067B 26037.09793353 .00047485 00000+0 10523-2 0 9993 2 41849 98.0095 272.6011 0008094 99.6677 260.5484 15.43585426507401 CELTEE 1 1 41850U 16067C 26037.04951447 .00009173 00000+0 45277-3 0 9997 2 41850 98.0846 254.6593 0001316 40.3897 319.7433 15.18144617505975 OPTICUBE 04 1 41851U 16067D 26036.55009865 .00004368 00000+0 28024-3 0 9993 2 41851 98.0817 241.8990 0015257 198.0904 161.9782 15.08976148505315 AEROCUBE 8D 1 41852U 16067E 26037.05069656 .00012837 00000+0 56080-3 0 9997 2 41852 98.0862 257.2902 0002495 213.4435 146.6642 15.22260512506101 AEROCUBE 8C 1 41853U 16067F 26036.56985464 .00014250 00000+0 61809-3 0 9993 2 41853 98.0726 254.1773 0005968 144.0816 216.0821 15.22463510506028 CORVUS BC2 1 42846U 17042X 26036.88946572 .00006470 00000+0 45565-3 0 9998 2 42846 97.3887 203.5412 0012994 197.3197 162.7588 15.05285796467302 CORVUS BC1 1 42847U 17042Y 26036.90088734 .00005112 00000+0 35853-3 0 9990 2 42847 97.3923 204.2737 0012239 171.4073 188.7366 15.05543257467334 MAKERSAT 0 1 43016U 17073D 26036.72273455 .00037894 00000+0 11805-2 0 9991 2 43016 97.4833 278.6217 0121836 19.4953 341.0885 15.26116650446371 SIRION PATHFINDER-2 1 43759U 18099B 26037.11174170 .00008049 00000+0 45713-3 0 9998 2 43759 97.4450 89.2804 0009916 41.7416 318.4570 15.13138769392790 CORVUS BC4 1 43767U 18099K 26036.74867600 .00009104 00000+0 54408-3 0 9996 2 43767 97.4261 83.5530 0010015 94.6456 265.5918 15.11255711392541 SPACEBEE-7 1 43816U 18099BL 26037.17060471 .00311213 00000+0 17968-2 0 9996 2 43816 97.4567 121.2276 0004745 288.3842 71.6908 15.77774183394207 SHIELDS 1 1 43850U 18104B 26036.97803109 .00931427 57737-3 64544-3 0 9992 2 43850 84.9931 222.6664 0003698 279.3416 80.7459 16.16631399399461 M2 PATHFINDER 1 45727U 20037E 26036.94535550 .00005731 00000+0 41942-3 0 9998 2 45727 97.8135 226.7258 0011051 234.8974 125.1216 15.03943687305762 NETSAT-4 1 46504U 20068U 26036.94044695 .00026641 00000+0 68913-3 0 9991 2 46504 97.8631 35.1045 0008427 75.8694 284.3486 15.39034390295551 NETSAT-3 1 46505U 20068V 26036.96796627 .00026399 00000+0 71405-3 0 9993 2 46505 97.8658 33.5477 0008361 88.0158 272.2043 15.37659603295485 NETSAT-1 1 46506U 20068W 26037.19195076 .00020986 00000+0 70244-3 0 9997 2 46506 97.8720 29.5460 0007981 101.5205 258.6932 15.30963489295235 NETSAT-2 1 46507U 20068X 26036.98038100 .00031190 00000+0 78233-3 0 9993 2 46507 97.8642 34.6924 0007128 97.0076 263.1980 15.39954248295505 WILDTRACKCUBE-SIMBA 1 47941U 21022K 26036.82214838 .00355522 00000+0 14163-2 0 9993 2 47941 97.3994 316.0845 0008645 116.6269 243.5888 15.85699147270753 GREENCUBE (IO-117) 1 53109U 22080E 26036.82714451 -.00000003 00000+0 00000+0 0 9991 2 53109 70.1644 343.9250 0009171 317.3784 42.6164 6.42583143 83627 SITRO-AIS 5 (KATYS) 1 57176U 23091L 26037.21736567 .00021265 00000+0 82255-3 0 9996 2 57176 97.5244 100.0672 0011809 198.9297 161.1504 15.26169591144348 SITRO-AIS 6 (CHIRKIN) 1 57192U 23091AC 26037.20073838 .00013365 00000+0 55452-3 0 9999 2 57192 97.5247 99.7628 0012033 198.0248 162.0564 15.23919626144324 SITRO-AIS 8 (ANOKHIN) 1 57193U 23091AD 26037.17945537 .00029768 00000+0 10773-2 0 9990 2 57193 97.5236 101.1418 0011128 195.9939 164.0951 15.28307502144416 SITRO-AIS 7 (FARTUSHNIY) 1 57194U 23091AE 26037.18051190 .00012250 00000+0 51192-3 0 9994 2 57194 97.5247 99.6249 0011773 199.2785 160.8008 15.23702278144314 SITRO-AIS 10 (BURDAEV) 1 57199U 23091AK 26037.18127148 .00034177 00000+0 10579-2 0 9991 2 57199 97.5249 105.0017 0007770 172.0169 188.1198 15.33366745144659 SITRO-AIS 9 (SHCHUKIN) 1 57201U 23091AM 26037.17210253 .00034924 00000+0 10928-2 0 9992 2 57201 97.5249 104.8096 0007809 173.0210 187.1142 15.33016178144647 SITRO-AIS 12 (SMIRENNIY) 1 57204U 23091AQ 26037.18546920 .00035577 00000+0 11046-2 0 9996 2 57204 97.5259 105.2156 0007779 166.2642 193.8813 15.33262204144666 SITRO-AIS 11 (SHEFFER) 1 57208U 23091AU 26037.16533616 .00035657 00000+0 10962-2 0 9991 2 57208 97.5256 105.3703 0007680 165.9763 194.1693 15.33576308144671 SITRO-AIS 25 1 59066U 24039R 26037.20885972 .00008961 00000+0 70749-3 0 9996 2 59066 95.3950 145.1374 0149375 66.0727 295.6063 14.92343057105185 SITRO-AIS 26 1 59067U 24039S 26037.19336606 .00008790 00000+0 69664-3 0 9994 2 59067 95.3955 145.0495 0149806 66.5873 295.1023 14.92162828105175 SITRO-AIS 27 1 59068U 24039T 26037.19897973 .00008952 00000+0 70381-3 0 9992 2 59068 95.3954 145.2673 0148872 65.4684 296.1978 14.92550502105197 SITRO-AIS 28 1 59071U 24039U 26037.24648859 .00010033 00000+0 78773-3 0 9995 2 59071 95.3954 145.3399 0148821 65.2040 296.4583 14.92586363105206 GRBBETA 1 60237U 24128C 26037.16026634 .00007335 00000+0 50659-3 0 9996 2 60237 61.9916 315.5833 0053916 107.7715 252.9271 15.05420826 86535 OOV-CUBE (TUBSAT-30) 1 60240U 24128F 26036.94331182 .00004466 00000+0 34317-3 0 9997 2 60240 61.9969 322.9767 0056653 105.7361 254.9988 15.02020243 86398 ROBUSTA-3A (MEDITERRAN*) 1 60243U 24128J 26036.93936662 .00015627 00000+0 94989-3 0 9995 2 60243 61.9881 311.6333 0054341 101.9687 258.7506 15.09436175 86591 LASARSAT 1 62391U 24247Q 26036.68676005 .00044703 00000+0 11712-2 0 9996 2 62391 44.9760 276.6095 0002388 214.0199 146.0535 15.38045753 63010 CROCUBE 1 62394U 24247T 26036.99781542 .00044088 00000+0 11195-2 0 9997 2 62394 44.9735 273.7889 0002212 191.4907 168.5929 15.39013829 63077